{"data":{"norad_id":65087,"epoch":"2026-05-25T02:20:58.141824Z","epoch_age_seconds":76649,"freshness":"FRESH","line1":"1 65087U 25167K   26145.09789516  .00008569  00000+0  30107-3 0  9991","line2":"2 65087  53.1592  32.0826 0001063  96.1709 263.9413 15.30204895 45178","mean_motion":15.30204895,"eccentricity":0.0001063,"inclination_deg":53.1592,"raan_deg":32.0826,"arg_perigee_deg":96.1709,"mean_anomaly_deg":263.9413,"bstar":0.00030107,"rev_number":4517,"period_min":94.105044671158,"perigee_km":474.47194409927,"apogee_km":475.92896364196,"semimajor_km":6853.3374538706,"source":"CELESTRAK","updated_at":"2026-05-25T13:38:20.683933Z"}}